Weather Roundup
Issued by NWS Chicago, IL

Home | Current Version | Previous Version | Graphics & Text | Print | Product List | Glossary On
Versions: 1 2 3 4 5 6 7 8 9 10 11 12 13 14 15 16 17 18 19 20 21 22 23 24 25 26 27 28 29 30 31 32 33 34 35 36 37 38 39 40 41 42 43 44 45 46 47 48 49 50
000
NZUS59 KLOT 281221
HRRLOT

CHICAGO AREA WEATHER ROUNDUP
NATIONAL WEATHER SERVICE CHICAGO/ROMEOVILLE IL
700 AM CDT FRI AUG 28 2015

NOTE: "FAIR" INDICATES FEW OR NO CLOUDS BELOW 12,000 FEET WITH NO
SIGNIFICANT WEATHER AND/OR OBSTRUCTIONS TO VISIBILITY.

* THESE STATIONS ARE NOT UNDER NWS QUALITY CONTROL. THEY ALSO MAY NOT
  REPORT WEATHER SUCH AS PRECIPITATION OR FOG.

ILZ005-006-012>014-019>023-281300-
NORTHEAST ILLINOIS

CITY           SKY/WX    TMP DP  RH WIND       PRES   REMARKS
OHARE          MOCLDY    61  56  83 CALM      30.13R
6HR MIN TEMP:  56; 6HR MAX TEMP:  61;

MIDWAY         MOCLDY    63  56  78 CALM      30.13R
6HR MIN TEMP:  62; 6HR MAX TEMP:  65;

AURORA         CLOUDY    59  57  93 CALM      30.13R FOG
6HR MIN TEMP:  53; 6HR MAX TEMP:  59;

LANSING*       CLEAR     59  57  94 CALM      30.15R
JOLIET*        MOCLDY    61  58  90 CALM      30.14R
WAUKEGAN       PTCLDY    58  57  97 CALM      30.13S FOG
6HR MIN TEMP:  53; 6HR MAX TEMP:  58;

DUPAGE AIRPORT CLOUDY    60  55  83 CALM      30.12S
6HR MIN TEMP:  55; 6HR MAX TEMP:  60;

WHEELING       PTCLDY    58  54  86 CALM      30.14R
6HR MIN TEMP:  54; 6HR MAX TEMP:  58;

KANKAKEE*      PTCLDY    58  56  94 CALM      30.14S
MORRIS*        LGT RAIN  58  56  95 CALM      30.12R
LEWIS AIRPORT* CLOUDY    59  56  91 CALM      30.14R
NORTHERLY IS     N/A     61  56  83 S2          N/A
$$

WIZ051-052-058>065-066-070>072-281300-
SOUTHEAST WISCONSIN

CITY           SKY/WX    TMP DP  RH WIND       PRES   REMARKS
MILWAUKEE      MOCLDY    60  56  86 SW3       30.15R FOG
6HR MIN TEMP:  56; 6HR MAX TEMP:  60;

KENOSHA*       PTCLDY    57  56  96 CALM      30.14R FOG
RACINE*        PTCLDY    59  56  89 CALM      30.15R
BURLINGTON     MOCLDY    52  51  99 CALM      30.13S FOG
WAUKESHA       CLEAR     54  54 100 CALM      30.15R FOG
WEST BEND      PTCLDY    52  50  93 CALM      30.15R FOG
$$

INZ001>003-010>013-019-020-281300-
NORTHWEST INDIANA

CITY           SKY/WX    TMP DP  RH WIND       PRES   REMARKS
GARY*          PTCLDY    59  55  88 SE6       30.14R
MICHIGAN CITY* NOT AVBL
RENSSELAER*    NOT AVBL
VALPARAISO     CLEAR     54  53  97 NE5       30.16R FOG
$$

LMZ740>746-281300-
SOUTHERN LAKE MICHIGAN

STATION/POSITION TIME  SKY/WX   TEMP WIND        PRES    VSBY
                                AIR  DIR/SP/G
                 (UTC)          (F)  (DEG/KT/KT) (MB)    (MI)
HARRISON CRIB    1200            62  180/  7/  7   N/A
BURNHAM HARBOR   1200            62  170/  1/  4   N/A
CALUMET HARBOR   1100            61  150/  3/  6   N/A
BURNS HARBOR     1100            62  170/ 11/ 16 1020.3S
MICHIGAN CITY    1200            60  130/ 11/ 13   N/A
$$

ABBREVIATIONS USED IN REMARKS
   TC - TEMPERATURE IN CELSIUS
  WCI - WIND CHILL INDEX
   HX - HEAT INDEX
  VSB - VISIBILITY
$$



USA.gov is the U.S. government's official web portal to all federal, state and local government web resources and services.